Photometre #354[Standard_N] Henties_Bay AOT

File : 20190924_354.hum

24/09/2019,12:10:44,TEMP=20.0,BA=5.64,STAT.D=Abs.,ExtBa=13.79
24/09/2019,12:25:44,TEMP=20.0,BA=5.64,STAT.D=Abs.,ExtBa=13.80
24/09/2019,12:40:44,TEMP=20.3,BA=5.64,STAT.D=Abs.,ExtBa=13.78
24/09/2019,12:55:46,TEMP=20.1,BA=5.64,STAT.F,ExtBa=13.78
24/09/2019,13:10:44,TEMP=20.3,BA=5.64,STAT.D=Abs.,ExtBa=13.63
24/09/2019,13:25:44,TEMP=19.9,BA=5.64,STAT.D=Abs.,ExtBa=13.71
24/09/2019,13:40:44,TEMP=19.2,BA=5.64,STAT.D=Abs.,ExtBa=13.67
24/09/2019,13:55:45,TEMP=18.7,BA=5.64,STAT.F,ExtBa=13.70
24/09/2019,14:10:43,TEMP=17.6,BA=5.64,STAT.D=Abs.,ExtBa=13.08
24/09/2019,14:18:21,TEMP=17.0,BA=5.64,STAT.B=Abs.,ExtBa=13.21
24/09/2019,14:45:20,TEMP=16.0,BA=5.64,STAT.B=Abs.,ExtBa=13.54
24/09/2019,14:58:27,TEMP=15.8,BA=5.64,STAT.A=Abs.,ExtBa=13.46
24/09/2019,15:09:04,TEMP=15.6,BA=5.60,STAT.A=Abs.,ExtBa=13.37
24/09/2019,15:17:51,TEMP=15.5,BA=5.56,STAT.A=Abs.,ExtBa=13.21
24/09/2019,15:25:15,TEMP=15.2,BA=5.64,STAT.A=Abs.,ExtBa=13.10
24/09/2019,15:31:36,TEMP=15.1,BA=5.64,STAT.C=Abs.,ExtBa=12.99
24/09/2019,15:32:40,TEMP=15.1,BA=5.64,STAT.h
24/09/2019,15:37:05,TEMP=14.9,BA=5.64,STAT.A=Abs.,ExtBa=12.90
24/09/2019,15:41:54,TEMP=14.9,BA=5.64,STAT.A=Abs.,ExtBa=12.80
24/09/2019,15:46:09,TEMP=14.8,BA=5.64,STAT.A=Abs.,ExtBa=12.72
24/09/2019,15:49:33,TEMP=14.9,BA=5.64,STAT.h
24/09/2019,15:52:56,TEMP=14.9,BA=5.64,STAT.h
24/09/2019,16:00:02,TEMP=14.9,BA=5.64,STAT.h
24/09/2019,16:00:54,TEMP=14.8,BA=5.64,STAT.A=Abs.,ExtBa=12.70
24/09/2019,16:06:04,TEMP=14.9,BA=5.64,STAT.A=Abs.,ExtBa=12.62
24/09/2019,16:10:39,TEMP=15.1,BA=5.60,STAT.A=Abs.,ExtBa=12.59
24/09/2019,16:14:05,TEMP=15.2,BA=5.60,STAT.h
24/09/2019,16:17:19,TEMP=15.2,BA=5.60,STAT.h
24/09/2019,16:20:04,TEMP=15.2,BA=5.60,STAT.h